Aérodrome :
LOGIN :

S'inscrire | Disclaimer

   EN    FR    IT 

 










Légende :    VFR   VFR Marginal   IFR   IFR Intensif   IFR Très Intensif
Visi : 
Plafond : 
>= 8 km
>= 3000ft
5 à 8 km
1000 à 3000 ft
1500m à 5 km
500 à 1000 ft
800 à 1500m
200 à 500 ft
< 800m
< 200 ft
Symboles :   Orages  Brouillard  Fortes neiges  Fortes précipitations  Vent > 20 kt
SIGMETs :   Divers  Orages  Givrage  Turbulence  Onde Orograph.  Cendres Volcan.






- Altitude de l'aérodrome : 1234 ft
- Code IATA : LUX


ELLX - Luxembourg Findel

DERNIER METAR :
  • 291220Z 04008KT 9999 BKN013 01/M03 Q1023 NOSIG

METARs EXPIRÉS :
  • 291150Z 04008KT 9999 BKN013 00/M03 Q1023 NOSIG
  • 291120Z 05008KT 9999 BKN012 00/M03 Q1023 NOSIG
  • 291050Z 07007KT 030V130 9999 BKN012 00/M03 Q1023 NOSIG
  • 291020Z 07006KT 040V120 9999 BKN011 M00/M03 Q1023 NOSIG
  • 290950Z 07007KT 9999 OVC010 M00/M03 Q1023 NOSIG

TAF TAF ELLX
Valide du 29 à 12h jusqu'au 30 à 18h UTC


291100Z 2912/3018 07008KT 9999 BKN012
BECMG 2912/2914 SCT020
PROB30
TEMPO 2923/3008 4000 BR
BECMG 3009/3012 25012KT
ATIS : +352 4798 27300
Météo : +352 4798 27010 / 27050



MET'MAP, la Météo Aéronautique d'un coup d'oeil ! - Copyright ORBIFLY Décembre 2007 - Disclaimer

ORBIFLY MET'MAP TEAM :

Programmation & Développement : Alexandra Zaïnal
Sur une idée originale de : Baudouin d'Aumeries
Assistance à la programmation : Marc-Olivier Méhu
Soutien technique & logistique : Manuel Goepfert

Contact : metmap@orbifly.com




SOURCES & CREDITS :

   NOAA